sat.trackr.live / text

‹ back to catalog

STARLINK-35405

NORAD 66440 · 2025-259U

PAYLOAD ACTIVE UNKNOWN

§ Identity

Operator
Country
US
Launch date
2025-11-11
Launch site
AFETR
Launch vehicle
Mass (kg)
RCS (m²)

Purposes: comms

External: N2YO · Heavens-Above · Gunter

§ Orbital elements

Epoch: 2026-05-25T04:58:06.220416Z

Period
94.27 min
Inclination
43.0000°
Eccentricity
0.0001103
Mean motion
15.27588877 rev/d
Perigee alt
482.3 km
Apogee alt
483.8 km
Semi-major
6,861.2 km
B*
4.6645e-4
RAAN
202.2147°
Arg perigee
283.5461°
Mean anomaly
76.5268°
Rev number
3,119

§ Raw data

STARLINK-354051 66440U 25259U   26145.20701644  .00012599  00000+0  46645-3 0  99982 66440  43.0000 202.2147 0001103 283.5461  76.5268 15.27588877 31197

JSON: /api/v1/satellites/66440 · /tle

For live sub-satellite position, see the globe view (requires WebGL).

§ Visibility from observer

Set your observer location to see the next 7 days of passes ≥ 10°. The values pass through the URL so the page stays shareable.

No JS? Fill the form by hand. The geolocation button needs JavaScript.